International Virtual Aviation Organisation

Russian Federation and Kazakhstan MCD

 

Карточка аэропорта UWOO

Внимание!
Информация на этой странице в стадии наполнения.
Если вы не увидели какой-то информации, или заметили неточность - пожалуйста сообщите нам!
Спасибо!
Команда RU-STAFF
Название аэропортаОренбург
Название аэропорта (англ.)Orenburg
Превышение387 ft. (118 m.)
Координаты51°48', 55°27'
Высота перехода700m
Эшелон переходаBy ATC
Коды ответчика2440-2443
Зона ОрВДСамара РПИ (UWWW)
Данные METARUWOO 302200Z 14003MPS CAVOK 04/M04 Q1029 R08/60D NOSIG RMK QFE761/1014
Проноз погоды (TAF)UWOO 301943Z 3021/3121 14005G12MPS 9999 BKN016 TX11/3110Z TNM02/3102Z TEMPO 3021/3121 17008G14MPS
NOTAMshow/hide NOTAM
AWOS   TABLE

Информация о ВПП

ВПП Длина ВПП (м.) Покрытие Курс ВПП Частота ILS
082501Асфальтобетон79109
262501Асфальтобетон259109.3

Диспетчерские позиции

Позывной Наименование органа УВД Частота
UWOO_TWRОренбург-Старт128.0
UWOO_R_APPОренбург - Круг120.400



Спутниковое изображение